Other Public Products
Issued by NWS Grand Forks, ND

Home | Current Version | Previous Version | Text Only | Print | Product List | Glossary On
Versions: 1 2 3 4 5 6 7 8 9 10 11 12 13 14 15 16 17 18 19 20 21 22 23 24 25 26 27 28 29 30 31 32 33 34 35 36 37 38 39 40 41 42 43 44 45 46 47 48 49 50
000
FPUS83 KFGF 291731
OPUFGF
PRAIRIE TO PINES WEATHER ROUNDUP
NATIONAL WEATHER SERVICE EASTERN NORTH DAKOTA/GRAND FORKS ND
1200 PM CDT SUN MAR 29 2015

 **SATELLITE DATA USED TO AUGMENT SKY COVER AT AUTOMATED STATIONS**
 *****  WEATHER ACROSS EASTERN NORTH DAKOTA  *****

CITY           SKY/WX    TMP DP  RH WIND       PRES   REMARKS
GRAND FORKS    PTSUNNY   47  33  58 NW25G36   29.84R
GRAND FORKS AF PTSUNNY   48  34  58 N24G32    29.85R
GRAND CITY NWS   N/A     48 N/A N/A N20         N/A
BUXTON           N/A     48  33  57 NW29G43     N/A
DEVILS LAKE    SUNNY     48  32  53 NW20G28   29.92R
FARGO          PTSUNNY   49  34  56 NW30G41   29.85R
WAHPETON ARPT  MOSUNNY   46  34  61 NW30G41   29.86R
$$

 *****  WEATHER ACROSS CENTRAL AND WESTERN NORTH DAKOTA  *****

CITY           SKY/WX    TMP DP  RH WIND       PRES   REMARKS
JAMESTOWN      SUNNY     49  33  54 NW26G36   29.93R
BISMARCK       SUNNY     51  30  44 NW20G28   30.06R
MINOT          SUNNY     50  30  46 W17       30.00R
MINOT AFB      SUNNY     48  35  60 NW21      29.99R
GARRISON         N/A     49  36  61 NW17G25   30.03R
WILLISTON      SUNNY     49  38  65 W14       30.07S
DICKINSON      MOSUNNY   48  35  60 W21G29    30.08R
HETTINGER      MOSUNNY   49  33  54 NW20      30.13R
$$

 *****  OTHER OBSERVATIONS NORTHEAST NORTH DAKOTA  *****

CITY           SKY/WX    TMP DP  RH WIND       PRES   REMARKS
WALHALLA         N/A     46  36  66 NW24G32   29.86R
LANGDON        NOT AVBL
CAVALIER       FAIR      48  34  57 NW21G31   29.85R
GRAFTON        NOT AVBL
CANDO          FAIR      50  28  43 NW20G30   29.93R
FORT TOTTEN    NOT AVBL
ROLLA          FAIR      46  27  46 NW26      29.93R
RUGBY            N/A     46  34  61 NW22      29.96R
 ***** THE ABOVE OBSERVATIONS ARE NON NWS ARE NOT QUALITY
        CONTROLLED AND MAY MIS-REPORT RAIN FOR SNOW...
$$

 *****  OTHER OBSERVATIONS SOUTHEAST NORTH DAKOTA *****

CITY           SKY/WX    TMP DP  RH WIND       PRES   REMARKS
COOPERSTOWN    NOT AVBL
VALLEY CITY    FAIR      48  32  53 N31G44    29.91R
OAKES            N/A     48  36  61 NW29G36   29.94R
GWINNER        SUNNY     48  37  66 NW25G37     N/A
SHEYENNE NWR     N/A     49  34  56 NW22      29.95S
BUFFALO        NOT AVBL
WYNDMERE         N/A     48  37  66 NW26        N/A
 ***** THE ABOVE OBSERVATIONS ARE NON NWS ARE NOT QUALITY
       CONTROLLED AND MAY MIS-REPORT RAIN FOR SNOW...
$$

  *****  WEATHER ACROSS NORTHERN MINNESOTA  *****

CITY           SKY/WX    TMP DP  RH WIND       PRES   REMARKS
FLAG ISLAND    CLOUDY    36  30  80 NW31G38   29.69R
WARROAD        PTSUNNY   39  34  81 NW25G32   29.72R
ROSEAU         PTSUNNY   41  34  75 NW28G39   29.74R
HALLOCK        PTSUNNY   45  37  76 N21       29.83R
THF RVR FALLS  CLOUDY    41  32  70 NW23G35   29.80R
HALSTAD          N/A     47  32  55 NW31        N/A
FOSSTON        CLOUDY    37  34  87 NW26G36   29.79R
BAUDETTE       CLOUDY    37  32  82 NW28G36   29.65R
WASKISH        CLOUDY    37  34  87 NW20G36   29.68R
CROOKSTON      PTSUNNY   45  36  70 N32G39    29.84R
$$
  *****  WEATHER ACROSS CENTRAL AND WEST MINNESOTA  *****

CITY           SKY/WX    TMP DP  RH WIND       PRES   REMARKS
BEMIDJI        CLOUDY    42  32  70 NW24G35   29.69R
PARK RAPIDS    PTSUNNY   43  32  65 NW24G39   29.69R
WADENA         MOSUNNY   39  32  75 NW25G37   29.75R
DETROIT LAKES  PTSUNNY   41  34  75 NW25G43   29.80R
MOORHEAD       MOSUNNY   48  39  71 NW31G39   29.85R
FERGUS FALLS   MOSUNNY   45  34  65 N33G52    29.85R
ELBOW LAKE     CLOUDY    43  34  70 NW30G41   29.81R
MORRIS MN      MOSUNNY   48  36  61 NW35G47   29.82R
STAPLES        PTSUNNY   41  34  75 NW28G36   29.71R
WHEATON        MOSUNNY   46  34  61 NW33G40   29.88R
$$
  *****  WEATHER ELSEWHERE ACROSS MINNESOTA  *****

CITY           SKY/WX    TMP DP  RH WIND       PRES   REMARKS
DULUTH         LGT SNOW  35  32  88 NW14G26   29.48R FOG
INTRNTL FALLS  CLOUDY    37  33  85 NW17G31   29.56R
ELY            LGT RAIN  34  32  93 NW8G23    29.46R
CLOQUET        CLOUDY    36  34  93 W14       29.51R
BRAINERD       CLOUDY    41  35  79 NW28G35   29.63R
HIBBING        LGT RAIN  36  32  85 NW22G30   29.50R
ALEXANDRIA     PTSUNNY   40  32  73 NW30G44   29.76R
SAINT CLOUD    CLOUDY    41  37  86 NW24G37   29.64R
MINNEAPOLIS    LGT RAIN  39  36  89 W33G43    29.64R FOG
$$

  *****  WEATHER ACROSS SOUTH DAKOTA  *****

CITY           SKY/WX    TMP DP  RH WIND       PRES   REMARKS
SIOUX FALLS    MOSUNNY   52  34  50 N35G47    29.94R
BROOKINGS      NOT AVBL
WATERTOWN      MOSUNNY   48  35  60 NW31G43   29.91R
HURON          SUNNY     51  32  48 NW32G43   30.01R
SISSETON         N/A     48  37  65 N38G46    29.86R
ABERDEEN       SUNNY     52  31  44 NW28G40   30.00R
MITCHELL       MOSUNNY   52  35  52 NW35G43   30.03R
PIERRE         SUNNY     53  29  39 NW24G31   30.11R
MOBRIDGE       SUNNY     52  29  41 NW28G35   30.05R
RAPID CITY     SUNNY     54  32  43 N22G30    30.19F
$$

  *****  SOME WEATHER IN NEARBY STATES *****

CITY           SKY/WX    TMP DP  RH WIND       PRES   REMARKS
GLASGOW MT     SUNNY     50  38  63 W10       30.09F
GREAT FALLS MT CLOUDY    49  25  39 SW21      30.13F
CHEYENNE WY    SUNNY     50  16  25 NW16G23   30.29S
SCOTTSBLUFF NE SUNNY     57  27  31 NW24G33   30.27F
OMAHA NE       PTSUNNY   60  39  45 NW31G43   29.94R
DES MOINES IA  MOSUNNY   57  40  52 W24G36    29.87S
DAVENPORT IA   PTSUNNY   38  30  73 S24G33    29.89F
CHICAGO IL     LGT RAIN  34  26  72 S24G32    29.92F WCI  21
EAU CLAIRE WI  NOT AVBL
LA CROSSE WI   CLOUDY    41  34  76 S13G21    29.68F
$$

  *****  SOME NATIONAL WEATHER *****

CITY           SKY/WX    TMP DP  RH WIND       PRES   REMARKS
LA GUARDIA NY  SUNNY     38   2  22 NW5       30.26F
RALEIGH NC     SUNNY     43   7  22 SE5       30.41F
ATLANTA GA     SUNNY     50  12  21 SE5       30.38F
NEW ORLEANS LA MOSUNNY   74  58  57 SE14      30.29F
OKLAHOMA CITY  MOSUNNY   70  46  42 VRB5      30.00R
ALBUQUERQUE NM PTSUNNY   66  18  15 SW6       30.28R
SALT LAKE CITY SUNNY     52  22  30 VRB3      30.34R
LOS ANGELES CA PTSUNNY   63  57  81 CALM      30.06S HAZE
BOISE ID       SUNNY     53  31  42 S7        30.33R
SEATTLE WA     CLOUDY    51  44  77 SE8       30.27S
$$

*** WEATHER ACROSS MANITOBA...SASKATCHEWAN AND ONTARIO ***
                ***ONTARIO***

CITY           SKY/WX    TMP DP  RH WIND       PRES   REMARKS
GERALDTON      SNOW      30  27  86 SW15G24   29.36F VSB 3/8 WCI  19
THUNDER BAY    LGT SNOW  34  32  93 W6        29.40
SIOUX LOOKOUT  FLURRIES  34  32  93 N16G25    29.46R WCI  23
TORONTO        MOSUNNY   39  18  41 S14G22    30.16F
BIG TROUT LK   MIX PCPN  32  30  93 N10G20    29.43R FOG     WCI  24
PICKLE LAKE    LGT SNOW  34  30  86 NW9G24    29.37R DRFTSNOW
DRYDEN         PTSUNNY   36  32  87 NW18G30   29.52R
KENORA         FLURRIES  34  30  86 NW16G24   29.63R WCI  23
$$
                *** MANITOBA***

CITY           SKY/WX    TMP DP  RH WIND       PRES   REMARKS
BRANDON        MOSUNNY   43  32  65 NW16      29.92R
DAUPHIN        SUNNY     39  30  70 W16       29.86S
ISLAND LAKE    CLOUDY    30  25  80 NW17G24   29.64R WCI  18
PILOT MOUND      N/A     45  34  65 NW22G30     N/A
THE PAS        SUNNY     43  27  52 W14       29.77S
THOMPSON       CLOUDY    25  19  80 NE13      29.73R WCI  13
WINNIPEG       MOSUNNY   45  36  70 NW22G29   29.81R
LYNN LAKE      CLOUDY    28  23  80 N5        29.74R WCI  23
GILLAM         LGT SNOW  16  10  79 N14       29.74R VSB 5/8 WCI   1
$$
                ***SASKATCHEWAN***

CITY           SKY/WX    TMP DP  RH WIND       PRES   REMARKS
ESTEVAN        MOSUNNY   46  37  71 W17       30.01F
KINDERSLEY     MOSUNNY   46  37  71 S7        29.94F
LLOYDMINSTER   MOSUNNY   46  34  61 SW12      29.88S
PRINCE ALBERT  MOSUNNY   46  32  57 W6        29.90F
REGINA         MOSUNNY   43  39  87 W16       29.99S
YORKTON        PTSUNNY   43  32  65 W16       29.91S



USA.gov is the U.S. government's official web portal to all federal, state and local government web resources and services.